Location: Vassar Physics Lab
(41.6843°N, 73.8954°W)
Time: 02:09:32
(UTC-04:00)

CZ-4B DEB - Visible Passes

Search period start: 01 November 2014 00:00
Search period end: 10 November 2014 23:00
Orbit: 844 x 863 km, 98.8° (Epoch: 30 October)

Date Brightness Start Highest point End Pass type
(mag) Time Alt. Az. Time Alt. Az. Time Alt. Az.
01 Nov 6.1 03:57:30 10° NNE 03:59:51 24° NE 03:59:51 24° NE visible
01 Nov 5.4 05:38:40 10° N 05:41:54 25° NW 05:41:54 25° NW visible
02 Nov 6.4 02:46:43 10° NNE 02:48:35 20° NE 02:48:35 20° NE visible
02 Nov 5.3 04:27:30 10° N 04:30:39 27° NNW 04:30:39 27° NNW visible
03 Nov 6.7 02:36:01 10° NE 02:37:19 16° NE 02:37:19 16° NE visible
03 Nov 5.3 04:16:22 10° N 04:19:22 29° NNW 04:19:22 29° NNW visible
04 Nov 7.0 02:25:24 10° NE 02:26:03 12° NE 02:26:03 12° NE visible
04 Nov 5.4 04:05:17 10° N 04:08:06 29° NNW 04:08:06 29° NNW visible
05 Nov 5.5 03:54:14 10° N 03:56:50 28° N 03:56:50 28° N visible
06 Nov 5.7 03:43:13 10° N 03:45:34 26° N 03:45:34 26° N visible
06 Nov 6.1 05:26:44 10° NW 05:27:37 11° NW 05:27:37 11° NW visible
07 Nov 5.9 03:32:14 10° NNE 03:34:18 24° NNE 03:34:18 24° NNE visible
07 Nov 6.0 05:14:55 10° NNW 05:16:21 13° NW 05:16:21 13° NW visible
08 Nov 6.2 03:21:18 10° NNE 03:23:01 21° NNE 03:23:01 21° NNE visible
08 Nov 5.9 05:03:25 10° NNW 05:05:04 15° NW 05:05:04 15° NW visible
09 Nov 6.4 03:10:24 10° NNE 03:11:45 18° NNE 03:11:45 18° NNE visible
09 Nov 5.9 04:52:04 10° NNW 04:53:48 17° NNW 04:53:48 17° NNW visible
10 Nov 6.7 02:59:33 10° NNE 03:00:28 15° NNE 03:00:28 15° NNE visible
10 Nov 5.9 04:40:48 10° N 04:42:32 18° NNW 04:42:32 18° NNW visible
